Wind_Speed
27 26 27 28 27 27 27 27 28 26 24 23 23 22 21 21 20 20 20 20 20 21 21 22 22 22 22 22 21 21 20 19 19 18 18 18 19 20 21 22 21 21 20 19
28 28 28 29 28 28 28 28 29 27 25 24 24 23 22 23 23 22 22 22 22 22 22 22 23 23 23 22 22 22 21 20 20 20 20 19 19 19 20 20 20 20 21 21
28 28 29 30 29 30 30 30 30 29 27 26 25 25 25 25 25 24 24 24 24 24 23 23 23 23 23 23 23 22 22 21 20 20 20 20 20 19 20 20 21 20 21 21
30 30 32 30 29 30 31 31 30 30 29 28 26 26 27 27 26 25 25 24 24 24 24 24 23 23 23 23 23 23 23 22 21 21 21 21 21 21 21 21 22 22 21 22
33 33 33 31 30 30 30 31 30 30 29 29 28 28 28 28 27 26 25 25 25 25 25 25 25 24 23 24 24 24 23 23 23 23 23 23 23 22 22 23 23 23 23 23
33 34 34 32 31 31 31 32 31 31 30 29 28 27 27 28 28 28 27 26 26 26 26 26 26 25 25 25 25 24 24 23 23 23 24 24 24 24 23 24 24 25 24 24
33 34 34 33 32 32 32 31 30 30 29 29 29 28 27 28 28 28 27 26 26 25 26 26 26 26 25 25 26 25 25 24 24 24 24 25 25 24 24 25 25 26 26 26
32 33 33 33 33 33 33 32 31 31 31 30 30 29 28 28 27 27 27 27 26 25 25 26 26 26 26 27 27 27 26 25 25 24 24 24 25 25 25 26 26 26 26 26
30 31 31 32 32 33 33 33 32 32 31 30 29 28 27 27 26 27 28 28 28 27 27 27 26 26 27 28 28 28 28 27 26 25 25 26 26 26 27 26 26 26 26 26
28 29 29 30 30 31 31 31 32 32 31 31 31 30 29 29 28 27 28 29 29 29 29 28 28 28 27 27 28 28 28 28 27 27 27 27 26 26 27 27 27 26 26 26
26 27 27 28 29 29 30 30 30 30 30 30 29 29 29 29 29 28 28 29 29 29 29 29 28 29 29 29 29 28 27 28 28 28 27 26 26 26 25 25 25 25 25 25
24 24 26 26 27 28 28 29 29 29 28 28 28 28 29 30 29 29 29 29 29 28 28 28 28 29 29 29 29 28 27 27 27 27 27 26 25 25 25 25 25 26 26 26
23 23 24 25 26 27 27 28 28 28 28 27 28 28 28 28 28 29 29 29 29 28 28 28 28 28 28 28 28 28 27 27 27 27 26 26 26 26 26 25 25 26 26 26
22 22 22 23 24 25 25 26 26 25 26 27 27 26 27 28 28 28 28 28 28 27 27 27 28 28 28 28 28 28 28 27 27 27 27 27 27 27 27 26 26 26 26 26
21 21 22 23 23 24 24 24 24 24 24 25 26 26 27 27 27 27 27 27 27 27 27 28 28 29 29 28 27 28 28 28 28 28 28 29 29 29 28 27 27 27 27 27
21 20 21 23 23 23 23 24 24 25 24 25 26 26 26 26 27 26 26 26 26 26 27 28 28 28 28 27 27 27 28 28 28 28 28 29 29 29 29 29 29 28 28 28
21 20 21 21 22 22 23 23 24 24 24 25 25 26 26 26 26 27 26 26 26 26 27 27 27 27 27 27 27 28 28 28 28 28 28 29 29 29 29 29 29 29 29 29
21 20 20 21 20 21 21 22 22 22 23 24 24 25 25 26 25 25 26 26 26 26 26 27 27 26 27 27 27 28 28 28 28 28 28 28 29 29 29 29 29 29 28 28
19 18 19 20 20 21 21 22 22 22 22 22 23 23 23 24 25 25 25 25 25 25 26 26 27 27 27 27 27 28 28 28 28 28 29 28 28 28 29 29 28 28 28 28
18 18 18 18 19 20 21 21 21 22 22 23 23 23 24 24 25 25 25 25 25 25 25 26 26 27 27 27 27 27 28 29 29 29 29 29 29 29 29 29 28 28 28 29
17 17 17 18 18 19 20 20 20 21 22 23 23 23 24 24 24 25 25 25 25 25 26 26 26 26 26 27 27 27 27 28 29 29 29 29 28 28 29 29 28 28 27 28
15 16 17 17 18 18 19 19 20 20 20 21 22 23 23 23 23 24 25 25 25 25 25 25 25 25 25 25 25 26 26 26 27 28 28 28 27 27 28 28 27 27 27 27
13 14 15 16 17 17 18 19 19 20 20 21 22 22 22 23 23 23 23 24 24 24 25 24 23 23 24 24 24 25 26 26 26 26 27 27 27 26 26 27 27 27 27 26
13 13 14 15 16 17 17 18 19 20 20 21 21 21 21 22 22 23 22 22 22 22 22 22 22 22 22 23 24 24 24 24 24 25 25 25 26 26 26 26 26 26 26 26
12 13 15 16 17 18 18 19 19 20 20 20 20 21 21 21 21 21 22 22 22 22 22 22 23 23 23 23 24 24 24 24 24 24 24 25 25 26 26 26 25 25 25 25
13 14 15 16 17 18 18 18 18 18 18 19 19 19 20 20 21 20 20 20 20 21 21 22 22 22 22 22 23 23 23 23 23 24 24 24 24 25 25 25 25 25 25 25
14 15 16 16 16 17 18 18 18 18 18 18 18 19 19 19 19 18 19 19 19 20 20 21 21 22 21 21 22 22 23 22 22 22 22 23 23 24 24 25 25 25 25 24
Wind_Direction
255 255 254 254 255 256 258 260 263 266 269 272 273 274 274 271 272 273 273 273 273 273 269 269 270 271 271 270 269 269 270 271 270 269 271 274 273 270 267 263 259 257 257 259
257 255 256 255 255 257 259 261 264 266 268 269 270 270 272 270 270 272 274 275 276 277 273 272 271 271 270 269 268 269 270 270 270 269 270 271 272 269 264 261 258 257 257 258
258 258 259 258 258 259 260 262 264 265 266 267 269 268 270 271 270 271 272 274 275 275 275 275 274 272 270 267 266 270 270 268 268 268 269 269 269 268 263 259 259 258 259 260
259 259 259 261 262 261 260 261 263 263 264 265 267 268 269 269 269 270 270 272 272 274 275 275 274 271 269 266 266 269 270 267 266 266 267 268 267 267 264 260 259 259 258 260
261 261 262 261 262 262 261 261 261 262 262 264 265 267 268 269 270 270 270 270 271 273 273 272 271 270 269 268 267 268 268 265 265 266 267 268 267 266 264 261 259 259 259 260
261 262 263 262 261 261 262 262 262 262 261 262 263 264 267 269 270 270 270 269 270 271 272 271 269 268 268 268 266 266 266 264 264 265 266 267 267 265 263 262 261 260 261 261
261 261 262 262 262 261 261 262 261 261 260 260 261 263 265 268 269 266 268 269 269 270 271 269 269 268 268 268 268 269 267 264 264 265 265 265 265 264 263 263 262 261 262 261
261 261 261 261 262 261 261 261 260 261 261 260 260 260 262 264 266 264 266 268 268 270 271 269 267 267 267 269 268 268 268 265 265 265 266 266 264 262 261 261 261 261 261 261
262 262 262 261 261 262 262 261 259 260 258 259 259 262 264 264 264 265 267 268 268 268 270 270 269 267 267 267 268 267 266 264 263 264 266 265 265 263 261 260 260 260 261 261
264 262 262 261 261 260 260 260 258 257 258 259 261 264 265 266 265 266 267 266 265 266 267 268 268 268 267 267 266 264 262 263 263 263 263 262 263 263 261 260 259 259 259 260
268 265 263 262 263 263 261 261 258 258 258 259 260 261 262 263 263 266 268 267 267 267 267 268 268 267 266 266 266 263 263 262 261 262 261 260 260 261 261 260 259 258 258 259
267 265 263 263 264 265 263 262 260 258 257 258 260 261 263 263 265 267 268 268 269 267 266 267 267 268 266 264 264 264 265 263 261 260 260 260 259 261 262 261 260 258 258 258
268 266 265 264 263 263 261 261 259 257 256 256 260 262 261 263 265 267 268 268 270 271 268 266 266 266 264 261 261 263 265 264 261 260 260 260 260 259 260 261 262 261 259 259
270 270 268 267 265 264 262 261 260 257 256 257 259 261 261 263 266 267 269 269 271 272 270 266 266 266 264 261 261 262 263 262 261 259 259 260 260 259 260 261 261 260 260 260
270 272 271 270 268 265 263 261 260 259 260 260 260 260 263 264 266 267 268 269 271 272 271 269 270 269 266 264 263 261 260 261 261 260 259 258 259 259 258 259 259 259 259 260
269 272 271 270 269 265 262 261 261 261 261 260 260 261 262 264 266 267 268 269 271 273 273 273 272 269 267 267 266 263 261 261 261 260 259 258 257 257 258 259 259 258 259 259
270 271 271 271 271 268 264 262 262 263 263 264 262 262 263 265 266 268 268 270 273 275 276 276 273 269 270 269 266 264 262 262 262 262 261 260 258 258 258 258 258 259 259 259
271 272 272 272 272 271 266 263 264 264 264 265 264 265 266 266 267 267 267 269 272 275 276 275 273 272 271 270 267 264 262 263 262 262 263 261 260 259 258 258 258 258 259 258
272 272 272 272 273 273 269 267 269 268 267 266 266 267 267 267 269 269 269 269 271 273 273 274 273 272 272 269 267 265 264 264 264 263 263 263 262 260 260 260 259 258 259 259
272 271 273 273 274 275 273 270 271 271 269 269 270 271 271 270 269 269 269 269 271 272 273 273 273 272 271 269 267 267 266 264 265 265 264 263 262 261 260 259 259 258 258 258
274 273 275 275 276 277 274 271 271 273 273 273 273 274 274 272 270 269 269 270 270 271 273 273 273 273 273 271 269 269 267 266 265 264 263 262 261 260 259 258 257 257 258 259
280 276 275 277 279 278 277 276 273 274 277 277 276 275 275 273 273 273 271 270 271 271 273 274 273 273 273 273 270 269 268 268 265 263 261 260 259 259 258 257 256 256 257 258
285 282 281 282 281 280 281 281 277 277 278 278 278 277 278 277 276 277 276 273 272 272 272 273 275 276 274 272 271 270 270 269 267 264 261 259 257 257 257 257 256 256 256 257
288 286 285 286 286 285 286 285 279 279 280 280 279 278 278 278 279 279 279 277 276 275 274 275 278 278 276 274 273 271 270 268 267 265 262 260 258 258 257 256 255 256 256 256
293 291 290 288 288 289 290 290 285 283 282 282 281 281 280 280 280 280 281 280 278 277 278 278 278 277 275 274 273 272 271 270 268 266 263 261 260 259 257 255 254 255 256 256
301 299 296 293 292 292 292 292 289 286 285 284 284 284 283 282 282 282 282 281 280 280 280 278 277 276 274 272 271 270 271 270 269 267 264 261 259 258 256 255 254 255 256 256
301 301 300 299 297 296 295 294 290 288 287 286 288 289 288 285 283 282 282 282 281 281 281 281 279 277 274 272 272 271 269 268 268 267 264 261 259 258 256 255 254 255 257 256
Height
5782 5783 5784 5785 5786 5787 5788 5789 5790 5791 5792 5793 5793 5793 5794 5793 5793 5793 5792 5792 5791 5791 5791 5791 5791 5791 5791 5791 5791 5792 5792 5792 5792 5792 5792 5792 5793 5793 5793 5794 5795 5796 5798 5799
5774 5775 5776 5777 5779 5780 5781 5782 5783 5784 5786 5787 5787 5787 5787 5787 5787 5787 5786 5785 5785 5784 5784 5784 5784 5784 5784 5784 5784 5785 5785 5785 5786 5786 5786 5786 5787 5787 5787 5788 5789 5790 5792 5793
5766 5768 5768 5769 5771 5772 5774 5774 5776 5777 5780 5779 5780 5780 5780 5780 5780 5780 5779 5779 5778 5777 5777 5777 5777 5777 5777 5777 5778 5778 5778 5778 5779 5779 5779 5780 5780 5781 5781 5782 5783 5784 5785 5787
5758 5760 5759 5764 5763 5764 5765 5767 5768 5769 5770 5772 5772 5772 5772 5773 5773 5772 5772 5771 5771 5770 5770 5770 5770 5770 5770 5770 5770 5770 5771 5771 5772 5772 5772 5773 5773 5774 5775 5776 5777 5778 5779 5780
5749 5749 5751 5754 5755 5756 5757 5758 5759 5761 5762 5763 5764 5764 5765 5765 5765 5765 5764 5764 5764 5763 5763 5763 5763 5763 5763 5763 5763 5763 5763 5763 5764 5765 5765 5766 5766 5767 5768 5769 5770 5771 5773 5774
5740 5741 5742 5746 5746 5747 5749 5749 5751 5752 5753 5754 5755 5757 5758 5757 5757 5757 5756 5756 5756 5756 5755 5755 5755 5755 5756 5756 5756 5756 5756 5756 5756 5757 5758 5758 5759 5760 5761 5762 5763 5764 5765 5767
5730 5731 5733 5735 5736 5738 5740 5742 5742 5743 5744 5746 5747 5748 5749 5749 5749 5748 5748 5748 5748 5748 5748 5747 5748 5748 5748 5748 5748 5748 5748 5748 5749 5749 5750 5751 5751 5752 5754 5755 5756 5757 5758 5759
5721 5722 5726 5726 5727 5729 5730 5732 5733 5734 5735 5737 5738 5739 5740 5740 5740 5740 5740 5740 5740 5740 5740 5740 5740 5740 5740 5740 5740 5740 5740 5741 5741 5741 5742 5743 5744 5745 5746 5747 5748 5749 5750 5751
5713 5715 5715 5716 5717 5718 5719 5722 5724 5725 5726 5728 5729 5730 5731 5731 5731 5731 5732 5732 5732 5732 5732 5732 5731 5731 5732 5732 5731 5731 5732 5732 5733 5733 5734 5735 5736 5737 5738 5739 5740 5742 5743 5744
5703 5705 5706 5707 5708 5709 5710 5712 5713 5715 5717 5718 5720 5721 5721 5722 5722 5723 5723 5723 5723 5723 5723 5723 5723 5723 5722 5722 5722 5722 5722 5723 5724 5725 5725 5726 5727 5729 5730 5731 5732 5733 5735 5736
5695 5697 5697 5699 5699 5700 5701 5702 5704 5705 5707 5708 5710 5711 5712 5713 5714 5714 5714 5713 5714 5714 5714 5714 5714 5714 5713 5713 5713 5713 5713 5714 5715 5716 5717 5718 5719 5720 5722 5723 5724 5725 5727 5728
5688 5689 5690 5691 5691 5692 5693 5694 5695 5696 5698 5699 5701 5702 5703 5704 5704 5704 5704 5704 5704 5704 5704 5704 5704 5704 5704 5704 5704 5704 5705 5706 5707 5708 5709 5710 5711 5712 5713 5715 5716 5717 5719 5720
5681 5681 5682 5683 5683 5684 5685 5686 5687 5688 5689 5690 5692 5693 5693 5695 5695 5695 5695 5695 5695 5695 5695 5695 5694 5694 5695 5695 5695 5696 5697 5697 5698 5699 5700 5701 5703 5704 5706 5707 5708 5709 5710 5712
5674 5674 5675 5675 5675 5676 5676 5677 5678 5679 5680 5682 5683 5684 5685 5686 5686 5686 5686 5686 5686 5686 5686 5686 5685 5685 5685 5685 5685 5687 5687 5688 5689 5690 5691 5693 5694 5695 5697 5698 5700 5701 5702 5703
5667 5667 5668 5667 5667 5668 5668 5669 5670 5671 5672 5673 5674 5675 5676 5677 5677 5677 5677 5677 5677 5677 5677 5677 5677 5676 5676 5675 5676 5677 5678 5679 5680 5681 5682 5684 5685 5686 5688 5690 5691 5692 5693 5694
5661 5661 5661 5660 5660 5660 5660 5661 5662 5663 5664 5665 5666 5667 5667 5668 5668 5668 5669 5669 5669 5668 5668 5667 5667 5667 5667 5667 5667 5668 5669 5670 5671 5672 5673 5674 5676 5677 5679 5680 5682 5683 5685 5686
5654 5654 5654 5653 5653 5653 5653 5654 5654 5655 5656 5656 5657 5658 5659 5659 5660 5660 5660 5660 5660 5659 5659 5658 5658 5658 5658 5658 5658 5659 5660 5661 5662 5663 5664 5665 5666 5667 5669 5671 5673 5674 5675 5676
5647 5647 5647 5647 5646 5646 5646 5647 5647 5648 5648 5648 5649 5649 5650 5650 5651 5651 5651 5651 5651 5651 5650 5650 5649 5649 5649 5649 5649 5650 5651 5652 5653 5654 5654 5655 5656 5658 5659 5661 5663 5664 5666 5667
5640 5640 5640 5640 5640 5640 5640 5640 5640 5640 5640 5640 5641 5641 5642 5642 5642 5642 5643 5643 5642 5642 5642 5641 5640 5640 5640 5640 5640 5641 5642 5642 5643 5644 5645 5646 5647 5649 5650 5652 5653 5655 5656 5657
5635 5634 5634 5634 5634 5633 5633 5633 5633 5633 5633 5633 5634 5634 5634 5634 5634 5634 5634 5634 5634 5633 5633 5632 5632 5632 5631 5631 5631 5632 5632 5633 5634 5635 5636 5637 5638 5639 5641 5642 5644 5645 5647 5648
5629 5629 5629 5628 5628 5627 5627 5626 5626 5626 5626 5626 5626 5626 5626 5626 5626 5625 5625 5626 5626 5625 5624 5624 5623 5623 5622 5622 5622 5623 5623 5624 5624 5625 5626 5628 5628 5630 5631 5633 5635 5636 5638 5639
5624 5624 5623 5623 5622 5622 5621 5620 5620 5619 5619 5619 5618 5618 5618 5618 5618 5617 5617 5617 5616 5616 5616 5615 5614 5614 5613 5613 5613 5614 5614 5614 5615 5616 5617 5618 5619 5621 5622 5623 5625 5627 5628 5630
5620 5619 5618 5618 5617 5616 5615 5614 5614 5613 5612 5612 5611 5611 5611 5610 5610 5610 5609 5609 5608 5607 5607 5606 5605 5605 5605 5604 5604 5605 5605 5605 5606 5606 5607 5608 5610 5611 5613 5614 5616 5618 5619 5621
5615 5614 5614 5613 5611 5610 5609 5609 5608 5607 5606 5605 5604 5604 5603 5603 5603 5602 5602 5601 5600 5599 5599 5598 5598 5597 5596 5596 5596 5596 5596 5597 5597 5597 5598 5599 5600 5602 5603 5605 5607 5608 5610 5612
5611 5610 5609 5608 5606 5605 5604 5603 5601 5600 5600 5599 5598 5597 5596 5596 5595 5595 5594 5594 5593 5592 5591 5591 5590 5589 5589 5588 5588 5588 5588 5588 5589 5589 5589 5590 5591 5592 5594 5596 5597 5599 5601 5602
5607 5605 5604 5602 5601 5600 5598 5597 5596 5595 5594 5593 5592 5591 5590 5589 5588 5588 5587 5586 5585 5585 5584 5583 5582 5581 5581 5580 5580 5580 5580 5580 5580 5580 5580 5581 5582 5583 5585 5586 5588 5590 5592 5593
5602 5601 5599 5598 5596 5595 5593 5591 5590 5589 5588 5587 5586 5585 5583 5582 5582 5581 5580 5579 5579 5577 5576 5575 5574 5573 5572 5572 5572 5572 5572 5572 5572 5572 5572 5572 5573 5575 5576 5578 5580 5581 5583 5585